Location: Unspecified
(43.4680°N, 87.1740°E)
Time: 21:44:01
(UTC+00:00)

NOSS 0 Rocket - Pass Details

Date: 31 July 2021
Orbit: 936 x 954 km, 70.0° (Epoch: 22 September)

Event Time Altitude Azimuth Distance (km) Brightness Sun altitude
Rises 18:27:37 0° 326° (NW) 3,634 7.7 -28.4°
Reaches altitude 10° 18:30:21 10° 318° (NW) 2,682 6.8 -28.4°
Enters shadow 18:35:18 35° 267° (W) 1,496 4.8 -28.3°
